This is the latest recevied weather packets stored in our database for station/object UR7D-12. If no packets are shown the sender has not sent any weather packets the latest 10 day(s).
| Time | Temp. | Humidity | Pressure | Rain* | Wind** | Luminosity | Snow |
|---|---|---|---|---|---|---|---|
| 1777302876 | 14.44° C | 31% | 994.1 hPa | 0 mm | - | - | - |
| 1777302575 | 14.44° C | 30% | 994.1 hPa | 0 mm | - | - | - |
| 1777302275 | 13.89° C | 32% | 994.2 hPa | 0 mm | - | - | - |
| 1777301975 | 13.89° C | 31% | 994.2 hPa | 0 mm | - | - | - |
| 1777300775 | 13.89° C | 30% | 994.4 hPa | 0 mm | - | - | - |
| 1777300173 | 13.89° C | 31% | 994.6 hPa | 0 mm | - | - | - |
| 1777299873 | 13.89° C | 30% | 994.5 hPa | 0 mm | - | - | - |
| 1777298972 | 13.89° C | 34% | 994.5 hPa | 0 mm | - | - | - |
| 1777298672 | 13.33° C | 32% | 994.6 hPa | 0 mm | - | - | - |
| 1777297771 | 13.33° C | 34% | 994.8 hPa | 0 mm | - | - | - |
| 1777297170 | 13.89° C | 33% | 994.9 hPa | 0 mm | - | - | - |
| 1777296570 | 13.89° C | 32% | 995 hPa | 0 mm | - | - | - |
| 1777296269 | 13.89° C | 32% | 995 hPa | 0 mm | - | - | - |
| 1777295969 | 13.89° C | 32% | 995 hPa | 0 mm | - | - | - |
| 1777295670 | 13.33° C | 32% | 995 hPa | 0 mm | - | - | - |
| 1777295369 | 13.33° C | 32% | 995.1 hPa | 0 mm | - | - | - |
| 1777295070 | 13.33° C | 31% | 995.2 hPa | 0 mm | - | - | - |
| 1777294768 | 13.33° C | 31% | 995.3 hPa | 0 mm | - | - | - |
| 1777292966 | 13.33° C | 30% | 995.5 hPa | 0 mm | - | - | - |
| 1777292666 | 13.89° C | 32% | 995.5 hPa | 0 mm | - | - | - |
| 1777292366 | 13.33° C | 31% | 995.6 hPa | 0 mm | - | - | - |
| 1777292065 | 13.33° C | 31% | 995.8 hPa | 0 mm | - | - | - |
| 1777291765 | 12.78° C | 31% | 995.6 hPa | 0 mm | - | - | - |
| 1777291465 | 13.33° C | 31% | 995.8 hPa | 0 mm | - | - | - |
| 1777291164 | 12.78° C | 30% | 995.7 hPa | 0 mm | - | - | - |
* Rain latest hour (hover to see other rain measurements)
** Current wind speed in m/s (hover to see current wind gust speed)